VU36VU-14 Weather Reports


Display with metric or nautical units.
time (UTC)temp
F
wind
direction
speed
MPH
gust
MPH
rain 1hr
in
rain 24hr
in
rain mn
in
humidity
%
barometer
mb
20260504222947 86 225 6.0 13.0 0.00 0.54 0.00 55 1008.0
20260504222747 86 225 6.0 13.0 0.00 0.54 0.00 55 1008.0
20260504222547 86 225 6.0 13.0 0.00 0.54 0.00 55 1008.0
20260504222347 86 225 6.0 13.0 0.00 0.54 0.00 55 1008.0
20260504222146 86 225 6.0 13.0 0.00 0.54 0.00 55 1008.0
20260504221947 86 225 6.0 13.0 0.00 0.54 0.00 55 1008.0
20260504221747 86 225 6.0 13.0 0.00 0.54 0.00 55 1008.0
20260504221346 86 228 4.0 11.0 0.00 0.54 0.00 52 1008.0
20260504221146 86 228 4.0 11.0 0.00 0.54 0.00 52 1008.0
20260504220947 86 228 4.0 11.0 0.00 0.54 0.00 52 1008.0
20260504220747 86 228 4.0 11.0 0.00 0.54 0.00 52 1008.0
20260504220547 86 228 4.0 11.0 0.00 0.54 0.00 52 1008.0
20260504220347 86 228 4.0 11.0 0.00 0.54 0.00 52 1008.0
20260504220147 86 228 4.0 11.0 0.00 0.54 0.00 52 1008.0
20260504215947 86 249 2.0 11.0 0.00 0.54 0.00 51 1008.0
20260504215748 86 249 2.0 11.0 0.00 0.54 0.00 51 1008.0
20260504215547 86 249 2.0 11.0 0.00 0.54 0.00 51 1008.0
20260504215147 86 249 2.0 11.0 0.00 0.54 0.00 51 1008.0
20260504214947 86 249 2.0 11.0 0.00 0.54 0.00 51 1008.0
20260504214747 86 249 2.0 11.0 0.00 0.54 0.00 51 1008.0
20260504214547 86 249 2.0 11.0 0.00 0.54 0.00 51 1008.0
20260504214347 87 300 2.0 12.0 0.00 0.54 0.00 49 1007.0
20260504214147 87 300 2.0 12.0 0.00 0.54 0.00 49 1007.0
20260504212948 87 337 4.0 13.0 0.00 0.54 0.00 48 1007.0
20260504212547 87 337 4.0 13.0 0.00 0.54 0.00 48 1007.0
20260504212347 87 337 4.0 13.0 0.00 0.54 0.00 48 1007.0
20260504212147 87 337 4.0 13.0 0.00 0.54 0.00 48 1007.0
20260504211947 87 337 4.0 13.0 0.00 0.54 0.00 48 1007.0
20260504211746 87 337 4.0 13.0 0.00 0.54 0.00 48 1007.0
20260504211547 87 337 4.0 13.0 0.00 0.54 0.00 48 1007.0
20260504211348 87 347 6.0 13.0 0.00 0.54 0.00 47 1007.0
20260504211147 87 347 6.0 13.0 0.00 0.54 0.00 47 1007.0
20260504210947 87 347 6.0 13.0 0.00 0.54 0.00 47 1007.0
20260504210547 87 347 6.0 13.0 0.00 0.54 0.00 47 1007.0
20260504210347 87 347 6.0 13.0 0.00 0.54 0.00 47 1007.0
20260504210147 87 347 6.0 13.0 0.00 0.54 0.00 47 1007.0
20260504205947 88 351 6.0 13.0 0.00 0.54 0.00 46 1007.0
20260504205747 88 351 6.0 13.0 0.00 0.54 0.00 46 1007.0
20260504205547 88 351 6.0 13.0 0.00 0.54 0.00 46 1007.0
20260504205347 88 351 6.0 13.0 0.00 0.54 0.00 46 1007.0
20260504205147 88 351 6.0 13.0 0.00 0.54 0.00 46 1007.0
20260504204947 88 351 6.0 13.0 0.00 0.54 0.00 46 1007.0
20260504204747 88 351 6.0 13.0 0.00 0.54 0.00 46 1007.0
20260504204347 88 354 6.0 13.0 0.00 0.54 0.00 46 1007.0
20260504204147 88 354 6.0 13.0 0.00 0.54 0.00 46 1007.0
20260504203947 88 354 6.0 13.0 0.00 0.54 0.00 46 1007.0
20260504203747 88 354 6.0 13.0 0.00 0.54 0.00 46 1007.0
20260504203547 88 354 6.0 13.0 0.00 0.54 0.00 46 1007.0
20260504203347 88 354 6.0 13.0 0.00 0.54 0.00 46 1007.0
20260504203147 88 354 6.0 13.0 0.00 0.54 0.00 46 1007.0
20260504202947 88 357 6.0 12.0 0.00 0.54 0.00 45 1007.0
20260504202748 88 357 6.0 12.0 0.00 0.54 0.00 45 1007.0
20260504202547 88 357 6.0 12.0 0.00 0.54 0.00 45 1007.0
20260504202147 88 357 6.0 12.0 0.00 0.54 0.00 45 1007.0
20260504201947 88 357 6.0 12.0 0.00 0.54 0.00 45 1007.0
20260504201747 88 357 6.0 12.0 0.00 0.54 0.00 45 1007.0
20260504201547 88 357 6.0 12.0 0.00 0.54 0.00 45 1007.0
20260504201347 88 357 6.0 12.0 0.00 0.54 0.00 45 1008.0
20260504201147 88 357 6.0 12.0 0.00 0.54 0.00 45 1008.0
20260504200947 88 357 6.0 12.0 0.00 0.54 0.00 45 1008.0
20260504200749 88 357 6.0 12.0 0.00 0.54 0.00 45 1008.0
20260504200547 88 357 6.0 12.0 0.00 0.54 0.00 45 1008.0
20260504200147 88 357 6.0 12.0 0.00 0.54 0.00 45 1008.0
20260504195947 88 349 5.0 12.0 0.00 0.54 0.00 45 1008.0
20260504195747 88 4 5.0 12.0 0.00 0.54 0.00 45 1008.0
20260504195547 88 4 5.0 12.0 0.00 0.54 0.00 45 1008.0
20260504195347 88 4 5.0 12.0 0.00 0.54 0.00 45 1008.0
20260504195147 88 4 5.0 12.0 0.00 0.54 0.00 45 1008.0
20260504194947 88 4 5.0 12.0 0.00 0.54 0.00 45 1008.0
20260504194747 88 4 5.0 12.0 0.00 0.54 0.00 45 1008.0
20260504194547 88 4 5.0 12.0 0.00 0.54 0.00 45 1008.0
20260504194347 88 360 4.0 11.0 0.00 0.54 0.00 45 1008.0
20260504191347 83 9 2.0 6.0 0.00 0.54 0.00 53 1008.0
20260504191147 83 9 2.0 6.0 0.00 0.05 0.03 53 1009.0
20260504190947 83 9 2.0 6.0 0.00 0.05 0.03 65 1009.0
20260504190747 83 9 2.0 6.0 0.00 0.05 0.03 65 1009.0
20260504190547 83 9 2.0 6.0 0.00 0.05 0.03 65 1009.0
20260504190347 83 9 2.0 6.0 0.00 0.05 0.03 65 1009.0
20260504190147 83 9 2.0 6.0 0.00 0.05 0.03 65 1009.0
20260504185947 83 22 1.0 9.0 0.00 0.67 0.30 65 1009.0
20260504185747 83 22 1.0 9.0 0.00 0.67 0.30 65 1009.0
20260504185547 83 22 1.0 9.0 0.00 0.67 0.30 65 1009.0
20260504183152 82 51 2.0 11.0 0.00 0.67 0.30 66 1009.0
20260504182947 82 67 2.0 14.0 0.00 0.67 0.30 67 1010.0
20260504182747 82 67 2.0 14.0 0.00 0.67 0.30 67 1010.0
20260504182547 82 67 2.0 14.0 0.00 0.67 0.30 67 1010.0
20260504182346 82 67 2.0 14.0 0.00 0.67 0.30 67 1010.0
20260504182147 82 67 2.0 14.0 0.00 0.67 0.30 67 1010.0
20260504181947 82 67 2.0 14.0 0.00 0.67 0.30 67 1010.0
20260504181546 82 67 2.0 14.0 0.00 0.67 0.30 67 1010.0
20260504181347 82 84 3.0 17.0 0.00 0.67 0.30 68 1010.0
20260504181147 82 84 3.0 17.0 0.00 0.67 0.30 68 1010.0
20260504180946 82 84 3.0 17.0 0.00 0.67 0.30 68 1010.0
20260504180747 82 84 3.0 17.0 0.00 0.67 0.30 68 1010.0
20260504180547 82 84 3.0 17.0 0.00 0.67 0.30 68 1010.0
20260504180347 82 84 3.0 17.0 0.00 0.67 0.30 68 1010.0
20260504180148 82 84 3.0 17.0 0.00 0.67 0.30 68 1010.0
20260504175947 82 94 4.0 18.0 0.00 0.67 0.30 67 1010.0
20260504175649 82 94 4.0 18.0 0.00 0.67 0.30 67 1010.0
20260504175448 82 94 4.0 18.0 0.00 0.67 0.30 67 1010.0
20260504175248 82 94 4.0 18.0 0.00 0.67 0.30 67 1010.0
20260504175048 82 94 4.0 18.0 0.00 0.67 0.30 67 1010.0
20260504174849 82 94 4.0 18.0 0.00 0.67 0.30 67 1010.0
20260504174649 82 94 4.0 18.0 0.00 0.67 0.30 67 1010.0
20260504174449 82 100 6.0 19.0 0.00 0.67 0.30 67 1010.0
20260504174249 82 100 6.0 19.0 0.00 0.67 0.30 67 1010.0
20260504173709 82 100 6.0 19.0 0.00 0.67 0.30 67 1010.0
20260504173509 82 100 6.0 19.0 0.00 0.67 0.30 67 1010.0
20260504173309 82 100 6.0 19.0 0.00 0.67 0.30 67 1010.0
20260504173110 82 100 6.0 19.0 0.00 0.67 0.30 67 1010.0
20260504172731 82 103 7.0 20.0 0.00 0.67 0.30 66 1010.0
20260504172530 82 103 7.0 20.0 0.00 0.67 0.30 66 1010.0
20260504172331 82 103 7.0 20.0 0.00 0.67 0.30 66 1010.0
20260504172131 82 103 7.0 20.0 0.00 0.67 0.30 66 1010.0
20260504171731 82 103 7.0 20.0 0.00 0.67 0.30 66 1010.0
20260504171531 82 103 7.0 20.0 0.00 0.67 0.30 66 1010.0
20260504171331 82 103 9.0 23.0 0.00 0.67 0.30 66 1010.0
20260504171131 82 103 9.0 23.0 0.00 0.67 0.30 66 1010.0
20260504170931 82 103 9.0 23.0 0.00 0.67 0.30 66 1010.0
20260504170731 82 103 9.0 23.0 0.00 0.67 0.30 66 1010.0
20260504170531 82 103 9.0 23.0 0.00 0.67 0.30 66 1010.0
20260504170332 82 103 9.0 23.0 0.00 0.67 0.30 66 1010.0
20260504170131 82 103 9.0 23.0 0.00 0.67 0.30 66 1010.0
20260504160331 82 92 12.0 41.0 0.00 0.67 0.30 68 1010.0
20260504160131 82 92 12.0 41.0 0.00 0.67 0.30 68 1010.0
20260504150931 80 142 24.0 61.0 0.00 0.67 0.30 77 1009.0
20260504150731 80 142 24.0 61.0 0.00 0.67 0.30 77 1009.0
20260504150531 80 142 24.0 61.0 0.00 0.67 0.30 77 1009.0
20260504150331 80 142 24.0 61.0 0.00 0.67 0.30 77 1009.0
20260504150132 80 142 24.0 61.0 0.00 0.67 0.30 77 1009.0
20260504141331 76 145 34.0 90.0 0.06 0.67 0.30 88 1009.0
20260504141131 76 145 34.0 90.0 0.06 0.67 0.30 88 1009.0
20260504140931 76 145 34.0 90.0 0.06 0.67 0.30 88 1009.0
20260504140731 76 145 34.0 90.0 0.06 0.67 0.30 88 1009.0
20260504140436 76 145 34.0 90.0 0.06 0.67 0.30 88 1009.0
20260504140237 76 156 31.0 90.0 0.06 0.67 0.30 88 1009.0
20260504130636 87 120 31.0 76.0 0.00 0.67 0.30 51 1007.0
20260504130437 87 120 31.0 76.0 0.00 0.67 0.00 51 1007.0
20260504120237 90 249 44.0 93.0 0.00 0.61 0.00 47 1006.0
20260504110714 100 110 9.0 32.0 0.00 0.61 0.00 29 1004.0
20260504110200 100 110 9.0 32.0 0.00 0.61 0.00 29 1004.0
20260504100559 104 16 2.0 37.0 0.00 0.61 0.00 28 1003.0
20260504100400 104 16 2.0 37.0 0.00 0.61 0.00 28 1003.0
20260504100200 104 16 2.0 37.0 0.00 0.61 0.00 28 1003.0
20260504081859 103 183 6.0 37.0 0.00 0.61 0.00 30 1005.0
20260504081459 103 189 6.0 37.0 0.00 0.61 0.00 31 1005.0
20260504081259 103 191 5.0 37.0 0.00 0.61 0.00 31 1005.0
20260504081059 103 191 5.0 37.0 0.00 0.61 0.00 31 1005.0
20260504080859 103 191 5.0 37.0 0.00 0.61 0.00 31 1005.0
20260504080659 103 191 5.0 37.0 0.00 0.61 0.00 31 1005.0
20260504080459 103 191 5.0 37.0 0.00 0.61 0.00 31 1005.0
20260504080259 103 191 5.0 37.0 0.00 0.61 0.00 31 1005.0
20260504070259 102 253 4.0 38.0 0.00 0.14 0.54 32 1006.0
20260504060134 100 294 7.0 39.0 0.00 0.14 0.54 36 1008.0
20260504050647 96 288 10.0 39.0 0.00 0.14 0.54 42 1008.0
20260504050447 96 288 10.0 39.0 0.00 0.14 0.54 42 1008.0
20260504050247 96 288 10.0 39.0 0.00 0.14 0.54 42 1008.0
20260504045847 96 288 10.0 39.0 0.00 0.14 0.54 43 1008.0
20260504045647 96 288 10.0 39.0 0.00 0.14 0.54 43 1008.0
20260504045447 96 288 10.0 39.0 0.00 0.14 0.54 43 1008.0
20260504045247 96 288 10.0 39.0 0.00 0.14 0.54 43 1008.0
20260504045047 96 288 10.0 39.0 0.00 0.14 0.54 43 1008.0
20260504044647 96 288 10.0 39.0 0.00 0.14 0.54 43 1008.0
20260504044447 95 289 10.0 39.0 0.00 0.14 0.54 45 1009.0
20260504044247 95 289 10.0 39.0 0.00 0.14 0.54 45 1009.0
20260504044047 95 289 10.0 39.0 0.00 0.14 0.54 45 1009.0
20260504043847 95 289 10.0 39.0 0.00 0.14 0.54 45 1009.0
20260504043647 95 289 10.0 39.0 0.00 0.14 0.54 45 1009.0
20260504043447 95 289 10.0 39.0 0.00 0.14 0.54 45 1009.0
20260504043247 95 289 10.0 39.0 0.00 0.14 0.54 45 1009.0
20260504043047 95 289 10.0 39.0 0.00 0.14 0.54 45 1009.0
20260504042848 93 291 10.0 38.0 0.00 0.14 0.54 47 1009.0
20260504042447 93 291 10.0 38.0 0.00 0.14 0.54 47 1009.0
20260504042247 93 291 10.0 38.0 0.00 0.14 0.54 47 1009.0
20260504042047 93 291 10.0 38.0 0.00 0.14 0.54 47 1009.0
20260504041847 93 291 10.0 38.0 0.00 0.14 0.54 47 1009.0
20260504041647 93 291 10.0 38.0 0.00 0.14 0.54 47 1009.0
20260504041447 92 289 10.0 37.0 0.00 0.14 0.54 49 1009.0
20260504041247 92 289 10.0 37.0 0.00 0.14 0.54 49 1009.0
20260504041047 92 289 10.0 37.0 0.00 0.14 0.54 49 1009.0
20260504040847 92 289 10.0 37.0 0.00 0.14 0.54 49 1009.0
20260504040447 92 289 10.0 37.0 0.00 0.14 0.54 49 1009.0
20260504040247 92 289 10.0 37.0 0.00 0.14 0.54 49 1009.0
20260504040049 92 289 10.0 37.0 0.00 0.14 0.54 49 1009.0
20260504035847 92 286 10.0 36.0 0.00 0.14 0.54 51 1009.0
20260504035647 92 286 10.0 36.0 0.00 0.14 0.54 51 1009.0
20260504035447 92 286 10.0 36.0 0.00 0.14 0.54 51 1009.0
20260504035247 92 286 10.0 36.0 0.00 0.14 0.54 51 1009.0
20260504035047 92 286 10.0 36.0 0.00 0.14 0.54 51 1009.0
20260504034847 92 286 10.0 36.0 0.00 0.14 0.54 51 1009.0
20260504034648 92 286 10.0 36.0 0.00 0.14 0.54 51 1009.0
20260504034247 91 281 9.0 34.0 0.00 0.14 0.54 53 1009.0
20260504034047 91 281 9.0 34.0 0.00 0.14 0.54 53 1009.0
20260504033847 91 281 9.0 34.0 0.00 0.14 0.54 53 1009.0
20260504033647 91 281 9.0 34.0 0.00 0.14 0.54 53 1009.0
20260504033447 91 281 9.0 34.0 0.00 0.14 0.54 53 1009.0
20260504033247 91 281 9.0 34.0 0.00 0.14 0.54 53 1009.0
20260504033047 91 281 9.0 34.0 0.00 0.14 0.54 53 1009.0
20260504032847 90 275 8.0 31.0 0.00 0.14 0.54 55 1009.0
20260504032647 90 275 8.0 31.0 0.00 0.14 0.54 55 1009.0
20260504032247 90 275 8.0 31.0 0.00 0.14 0.54 55 1009.0
20260504032047 90 275 8.0 31.0 0.00 0.14 0.54 55 1009.0
20260504031847 90 275 8.0 31.0 0.00 0.14 0.54 55 1009.0
20260504031647 90 275 8.0 31.0 0.00 0.14 0.54 55 1009.0
20260504031447 89 270 7.0 29.0 0.00 0.14 0.54 58 1009.0
20260504031247 89 270 7.0 29.0 0.00 0.14 0.54 58 1009.0
20260504031047 89 270 7.0 29.0 0.00 0.14 0.54 58 1009.0
20260504030847 89 270 7.0 29.0 0.00 0.14 0.54 58 1009.0
20260504030647 89 270 7.0 29.0 0.00 0.14 0.54 58 1009.0
20260504030447 89 270 7.0 29.0 0.00 0.14 0.54 58 1009.0
20260504030049 89 270 7.0 29.0 0.00 0.14 0.54 58 1009.0
20260504025847 88 276 6.0 27.0 0.00 0.14 0.54 60 1009.0
20260504025647 88 276 6.0 27.0 0.00 0.14 0.54 60 1009.0
20260504025447 88 276 6.0 27.0 0.00 0.14 0.54 60 1009.0
20260504025247 88 276 6.0 27.0 0.00 0.14 0.54 60 1009.0
20260504025047 88 276 6.0 27.0 0.00 0.14 0.54 60 1009.0
20260504024847 88 276 6.0 27.0 0.00 0.14 0.54 60 1009.0
20260504024647 88 276 6.0 27.0 0.00 0.14 0.54 60 1009.0
20260504024447 87 283 6.0 26.0 0.00 0.14 0.54 62 1009.0
20260504024247 87 283 6.0 26.0 0.00 0.14 0.54 62 1009.0
20260504023847 87 283 6.0 26.0 0.00 0.14 0.54 62 1009.0
20260504023647 87 283 6.0 26.0 0.00 0.14 0.54 62 1009.0
20260504023447 87 283 6.0 26.0 0.00 0.14 0.54 62 1009.0
20260504023247 87 283 6.0 26.0 0.00 0.14 0.54 62 1009.0
20260504023047 87 283 6.0 26.0 0.00 0.14 0.54 62 1009.0
20260504022847 86 292 5.0 24.0 0.00 0.14 0.54 65 1008.0
20260504022647 86 292 5.0 24.0 0.00 0.14 0.54 65 1008.0
20260504022447 86 292 5.0 24.0 0.00 0.14 0.54 65 1008.0
20260504022247 86 292 5.0 24.0 0.00 0.14 0.54 65 1008.0
20260504022049 86 292 5.0 24.0 0.00 0.14 0.54 65 1008.0
20260504021651 86 292 5.0 24.0 0.00 0.14 0.54 65 1008.0
20260504021451 85 298 5.0 21.0 0.00 0.14 0.54 68 1008.0
20260504021251 85 298 5.0 21.0 0.00 0.14 0.54 68 1008.0
20260504021051 85 298 5.0 21.0 0.00 0.14 0.54 68 1008.0
20260504020852 85 298 5.0 21.0 0.00 0.14 0.54 68 1008.0
20260504020451 85 298 5.0 21.0 0.00 0.14 0.54 68 1008.0
20260504020251 85 298 5.0 21.0 0.00 0.14 0.54 68 1008.0
20260504020052 85 298 5.0 21.0 0.00 0.14 0.54 68 1008.0
20260504015851 84 297 4.0 18.0 0.00 0.14 0.54 68 1008.0
20260504015651 84 297 4.0 18.0 0.00 0.14 0.54 68 1008.0
20260504015451 84 297 4.0 18.0 0.00 0.14 0.54 68 1008.0
20260504015251 84 297 4.0 18.0 0.00 0.14 0.54 68 1008.0
20260504015051 84 297 4.0 18.0 0.00 0.14 0.54 68 1008.0
20260504014852 84 297 4.0 18.0 0.00 0.14 0.54 68 1008.0
20260504014451 84 288 4.0 12.0 0.00 0.14 0.54 70 1008.0
20260504014251 84 288 4.0 12.0 0.00 0.14 0.54 70 1008.0
20260504014051 84 288 4.0 12.0 0.00 0.14 0.54 70 1008.0
20260504013851 84 288 4.0 12.0 0.00 0.14 0.54 70 1008.0
20260504013651 84 288 4.0 12.0 0.00 0.14 0.54 70 1008.0
20260504013452 84 288 4.0 12.0 0.00 0.14 0.54 70 1008.0
20260504013251 84 288 4.0 12.0 0.00 0.14 0.54 70 1008.0
20260504013051 84 288 4.0 12.0 0.00 0.14 0.54 70 1008.0
20260504012851 83 280 3.0 7.0 0.00 0.14 0.54 71 1008.0
20260504012451 83 280 3.0 7.0 0.00 0.14 0.54 71 1008.0
20260504012256 83 280 3.0 7.0 0.00 0.14 0.54 71 1008.0
20260504012051 83 280 3.0 7.0 0.00 0.14 0.54 71 1008.0
20260504011851 83 280 3.0 7.0 0.00 0.14 0.54 71 1008.0
20260504011651 83 280 3.0 7.0 0.00 0.14 0.54 71 1008.0
20260504011451 83 270 3.0 4.0 0.00 0.14 0.54 72 1008.0
20260504011251 83 270 3.0 4.0 0.00 0.14 0.54 72 1008.0
20260504011051 83 270 3.0 4.0 0.00 0.14 0.54 72 1008.0
20260504010851 83 235 4.0 4.0 0.00 0.14 0.54 72 1008.0
20260504010651 83 235 4.0 4.0 0.00 0.14 0.54 72 1008.0
20260504010251 83 238 4.0 4.0 0.00 0.14 0.54 72 1008.0
20260504010052 83 238 4.0 4.0 0.00 0.14 0.54 72 1008.0
20260504005851 83 232 4.0 4.0 0.00 0.14 0.54 72 1008.0
20260504005651 83 232 4.0 9.0 0.00 0.14 0.54 72 1008.0
20260504005451 83 232 4.0 9.0 0.00 0.14 0.54 72 1008.0
20260504005251 83 232 4.0 9.0 0.00 0.14 0.54 72 1008.0
20260504005051 83 232 4.0 9.0 0.00 0.14 0.54 72 1008.0
20260504004851 83 232 4.0 9.0 0.00 0.14 0.54 72 1008.0
20260504004651 83 232 4.0 9.0 0.00 0.14 0.54 72 1008.0
20260504004452 83 225 3.0 9.0 0.00 0.14 0.54 72 1008.0
20260504004051 82 225 3.0 9.0 0.00 0.14 0.54 73 1008.0
20260504003852 82 225 3.0 9.0 0.00 0.14 0.54 73 1008.0
20260504003651 82 225 3.0 9.0 0.00 0.14 0.54 73 1008.0
20260504003451 82 225 3.0 9.0 0.00 0.14 0.54 73 1008.0
20260504003252 82 225 3.0 9.0 0.00 0.14 0.54 73 1008.0
20260504003051 82 225 3.0 9.0 0.00 0.14 0.54 73 1008.0
20260504002852 82 210 2.0 9.0 0.00 0.14 0.54 73 1007.0
20260504002651 82 210 2.0 9.0 0.00 0.14 0.54 73 1007.0
20260504002451 82 210 2.0 9.0 0.00 0.14 0.54 73 1007.0
20260504002051 82 210 2.0 9.0 0.00 0.14 0.54 73 1007.0
20260504001851 82 210 2.0 9.0 0.00 0.14 0.54 73 1007.0
20260504001651 82 210 2.0 9.0 0.00 0.14 0.54 73 1007.0
20260504001451 82 201 2.0 9.0 0.00 0.14 0.03 73 1007.0
20260504001251 82 201 2.0 9.0 0.00 0.14 0.03 73 1007.0
20260504001051 82 201 2.0 9.0 0.00 0.14 0.03 73 1007.0
20260504000851 82 201 2.0 9.0 0.00 0.14 0.03 72 1007.0
20260504000651 82 201 2.0 9.0 0.00 0.14 0.03 72 1007.0
20260504000451 82 201 2.0 9.0 0.00 0.14 0.03 72 1007.0
20260504000053 82 201 2.0 9.0 0.00 0.14 0.03 72 1007.0
20260503235851 82 209 3.0 10.0 0.00 0.14 0.03 71 1007.0
20260503235651 82 209 3.0 10.0 0.00 0.14 0.03 71 1007.0
20260503235451 82 209 3.0 10.0 0.00 0.14 0.03 71 1007.0
20260503235251 82 209 3.0 10.0 0.00 0.14 0.03 71 1007.0
20260503235051 82 209 3.0 10.0 0.00 0.14 0.03 71 1007.0
20260503234851 82 209 3.0 10.0 0.00 0.14 0.03 71 1007.0
20260503234651 82 209 3.0 10.0 0.00 0.14 0.03 71 1007.0
20260503234451 82 215 4.0 11.0 0.00 0.14 0.03 70 1007.0
20260503234251 82 215 4.0 11.0 0.00 0.14 0.03 70 1007.0
20260503233851 82 215 4.0 11.0 0.00 0.14 0.03 70 1007.0
20260503233652 82 215 4.0 11.0 0.00 0.14 0.03 70 1007.0
20260503233452 82 215 4.0 11.0 0.00 0.14 0.03 70 1007.0
20260503233252 82 215 4.0 11.0 0.00 0.14 0.03 70 1007.0
20260503233052 82 215 4.0 11.0 0.00 0.14 0.03 70 1007.0
20260503232851 83 222 5.0 13.0 0.00 0.14 0.03 70 1007.0
20260503232651 83 222 5.0 13.0 0.00 0.14 0.03 70 1007.0
20260503232452 83 222 5.0 13.0 0.00 0.14 0.03 70 1007.0
20260503232251 83 222 5.0 13.0 0.00 0.14 0.03 70 1007.0
20260503232052 83 222 5.0 13.0 0.00 0.14 0.03 70 1007.0
20260503231651 83 222 5.0 13.0 0.00 0.14 0.03 70 1007.0
20260503231451 83 220 6.0 14.0 0.00 0.14 0.03 68 1007.0
20260503231251 83 220 6.0 14.0 0.00 0.14 0.03 68 1007.0
20260503231051 83 220 6.0 14.0 0.00 0.14 0.03 68 1007.0
20260503230851 83 220 6.0 14.0 0.00 0.14 0.03 68 1007.0
20260503230651 83 220 6.0 14.0 0.00 0.14 0.03 68 1007.0
20260503230451 83 220 6.0 14.0 0.00 0.14 0.03 68 1007.0
20260503230251 83 220 6.0 14.0 0.00 0.14 0.03 68 1007.0
20260503230052 83 220 6.0 14.0 0.00 0.14 0.03 68 1007.0
20260503225852 83 214 6.0 15.0 0.00 0.14 0.03 68 1007.0
20260503225452 83 214 6.0 15.0 0.00 0.14 0.03 68 1007.0
20260503225252 83 214 6.0 15.0 0.00 0.14 0.03 68 1007.0
20260503225052 83 214 6.0 15.0 0.00 0.14 0.03 68 1007.0
20260503224852 83 214 6.0 15.0 0.00 0.14 0.03 68 1007.0
20260503224651 83 214 6.0 15.0 0.00 0.14 0.03 68 1007.0
20260503224451 83 207 6.0 16.0 0.00 0.14 0.03 67 1007.0
20260503224252 83 207 6.0 16.0 0.00 0.14 0.03 67 1007.0
20260503224052 83 207 6.0 16.0 0.00 0.14 0.03 67 1007.0
20260503223852 83 207 6.0 16.0 0.00 0.14 0.03 67 1007.0
20260503223653 83 207 6.0 16.0 0.00 0.14 0.03 67 1007.0
20260503223252 83 207 6.0 16.0 0.00 0.14 0.03 67 1007.0